{"data":{"norad_id":61675,"intl_designator":"2024-193Q","name":"STARLINK-32294","alt_names":[],"object_type":"PAYLOAD","status":"ACTIVE","operator":null,"country":"US","launch_date":"2024-10-26","launch_site_code":"AFETR","launch_vehicle":null,"mission":null,"orbit_class":"UNKNOWN","rcs_meters":null,"size_class":null,"mass_kg":null,"dimensions":null,"purposes":["comms"],"wikipedia_slug":null,"has_3d_model":false,"image_url":null,"decayed_at":null,"tle_current":{"epoch":"2026-05-25T03:05:03.792768Z","epoch_age_seconds":57242,"freshness":"FRESH","line1":"1 61675U 24193Q   26145.12851612  .00001158  00000+0  49079-4 0  9995","line2":"2 61675  53.1618  95.6821 0001258  81.9082 278.2062 15.31699462 88230","mean_motion":15.31699462,"eccentricity":0.0001258,"inclination_deg":53.1618,"raan_deg":95.6821,"arg_perigee_deg":81.9082,"mean_anomaly_deg":278.2062,"bstar":4.9079e-5,"rev_number":8823,"period_min":94.013220982642,"perigee_km":469.88001004837,"apogee_km":471.60318790387,"semimajor_km":6848.8785989761,"source":"CELESTRAK","updated_at":"2026-05-25T13:38:19.436261Z"}}}